Regional Weather Roundup
Issued by NWS Huntsville, AL

Home | Current Version | Previous Version | Text Only | Print | Product List | Glossary On
Versions: 1 2 3 4 5 6 7 8 9 10 11 12 13 14 15 16 17 18 19 20 21 22 23 24 25 26 27 28 29 30 31 32 33 34 35 36 37 38 39 40 41 42 43 44 45 46 47 48 49 50
000
ASUS44 KHUN 011700
RWRHUN

WEATHER ROUNDUP FOR THE TENNESSEE VALLEY
NATIONAL WEATHER SERVICE HUNTSVILLE AL
1200 PM CDT FRI AUG 01 2014

ALZ001>004-011800-
NORTHWEST ALABAMA

CITY           SKY/WX    TMP DP  RH WIND       PRES   REMARKS
SHOALS AIRPORT MOSUNNY   81  65  58 CALM      30.07F
$$

ALZ005>007-016-011800-
NORTH CENTRAL ALABAMA

CITY           SKY/WX    TMP DP  RH WIND       PRES   REMARKS
DECATUR AP     MOSUNNY   83  68  60 E7        30.07F
HUNTSVILLE AP  MOSUNNY   81  66  60 E8        30.07F
HUN NWS/UAH      N/A     79  64  59 E5          N/A
REDSTONE ARSN  MOSUNNY   81  66  61 CALM      30.08F
$$

ALZ008>010-011800-
NORTHEAST ALABAMA

CITY           SKY/WX    TMP DP  RH WIND       PRES   REMARKS
FORT PAYNE     NOT AVBL
SCOTTSBORO AP  PTSUNNY   79  66  65 E3        30.08F
SCOTTSBORO HCN   N/A     77 N/A N/A MISG        N/A
VALLEY HEAD      N/A     75 N/A N/A MISG        N/A
$$

TNZ076-096-097-011800-
SOUTHEASTERN MIDDLE TENNESSEE

CITY           SKY/WX    TMP DP  RH WIND       PRES   REMARKS
FAYETTEVILLE   MOSUNNY   77  64  65 SE7G37    30.08F
TULLAHOMA      MOSUNNY   81  63  54 CALM      30.10F
WINCHESTER     SUNNY     81  64  57 CALM      30.09F
$$

...SURROUNDING SITES...

CITY           SKY/WX    TMP DP  RH WIND       PRES   REMARKS
ATLANTA        PTSUNNY   74  66  76 NE10      30.09S
ANNISTON       CLOUDY    75  67  76 NE6       30.07F
BIRMINGHAM     PTSUNNY   81  67  62 VRB3      30.08S
CHATTANOOGA    PTSUNNY   80  63  55 CALM      30.08F
DALTON         NOT AVBL
GADSDEN        CLOUDY    79  66  65 E7        30.07F
GOLDEN TRNGL   MOSUNNY   82  66  57 E5        30.04F
JACKSON TN     CLOUDY    81  65  58 N3        30.08S
MEMPHIS        PTSUNNY   83  63  50 E6        30.06F
NASHVILLE      MOSUNNY   84  64  50 E8        30.08F
ROME           CLOUDY    79  66  64 CALM      30.07F
SAVANNAH       SUNNY     84  63  48 E6        30.07S
TUPELO         MOSUNNY   82  66  58 NE9       30.05F
TUSCALOOSA     PTSUNNY   85  68  56 CALM      30.03F
$$

...GULF COAST WEATHER...

CITY           SKY/WX    TMP DP  RH WIND       PRES   REMARKS
GULFPORT       CLOUDY    83  68  60 CALM      30.02S
PASCAGOULA     CLOUDY    83  67  58 N3        30.02F
PENSACOLA      CLOUDY    82  70  66 SW3       30.00F
DESTIN         CLOUDY    84  69  60 S3        30.00S
PANAMA CITY    DRIZZLE   86  64  48 SW7       30.00F
APPALACHICOLA  PTSUNNY   83  69  62 VRB5      30.00F
$$



USA.gov is the U.S. government's official web portal to all federal, state and local government web resources and services.